SB KEPS @ AMSAT $ORB10021.O Orbital Elements 10021.OSCAR
HR AMSAT ORBITAL ELEMENTS FOR OSCAR SATELLITES FROM WA5QGD FORT WORTH,TX January 21, 2010 Send Subscribe/unsubscribe to KEPS at http://www.amsat.org/mailman/listinfo/keps BID: ORB10021.O TO ALL RADIO AMATEURS BT
Satellite: AO-07 Catalog number: 07530 Epoch time: 10020.64085776 Element set: 0685 Inclination: 101.4116 deg RA of node: 042.1862 deg Eccentricity: 0.0011892 Arg of perigee: 202.9607 deg Mean anomaly: 157.0933 deg Mean motion: 12.53577550 rev/day Decay rate: -2.7e-07 rev/day^2 Epoch rev: 60996 Checksum: 290
Satellite: FO-29 Catalog number: 24278 Epoch time: 10021.60598263 Element set: 226 Inclination: 098.5239 deg RA of node: 230.9324 deg Eccentricity: 0.0351023 Arg of perigee: 144.0008 deg Mean anomaly: 218.5331 deg Mean motion: 13.52947023 rev/day Decay rate: 3.1e-07 rev/day^2 Epoch rev: 66328 Checksum: 276
Satellite: SO-33 Catalog number: 25509 Epoch time: 10020.71275087 Element set: 0635 Inclination: 031.4304 deg RA of node: 262.4667 deg Eccentricity: 0.0353620 Arg of perigee: 080.3706 deg Mean anomaly: 283.6676 deg Mean motion: 14.28281520 rev/day Decay rate: +3.03e-06 rev/day^2 Epoch rev: 58695 Checksum: 294
Satellite: RS-22 Catalog number: 27939 Epoch time: 10020.57057457 Element set: 0993 Inclination: 097.9138 deg RA of node: 252.1249 deg Eccentricity: 0.0013814 Arg of perigee: 162.2560 deg Mean anomaly: 197.9134 deg Mean motion: 14.63374663 rev/day Decay rate: +8.4e-07 rev/day^2 Epoch rev: 33736 Checksum: 323
Satellite: VO-52 Catalog number: 28650 Epoch time: 10020.30853681 Element set: 0417 Inclination: 097.7148 deg RA of node: 079.3618 deg Eccentricity: 0.0027874 Arg of perigee: 042.1361 deg Mean anomaly: 318.1994 deg Mean motion: 14.81668598 rev/day Decay rate: -1.31e-06 rev/day^2 Epoch rev: 25479 Checksum: 326
Satellite: SO-67 Catalog number: 35870 Epoch time: 10021.84247005 Element set: 374 Inclination: 097.3538 deg RA of node: 074.4328 deg Eccentricity: 0.0010740 Arg of perigee: 205.1472 deg Mean anomaly: 265.2685 deg Mean motion: 15.22927168 rev/day Decay rate: 4.85e-06 rev/day^2 Epoch rev: 1919 Checksum: 304
Satellite: HO-68 Catalog number: 36122 Epoch time: 10021.62841039 Element set: 112 Inclination: 100.4921 deg RA of node: 083.4244 deg Eccentricity: 0.0007296 Arg of perigee: 311.7779 deg Mean anomaly: 048.2710 deg Mean motion: 13.16279884 rev/day Decay rate: -4.5e-07 rev/day^2 Epoch rev: 493 Checksum: 278
/EX SB KEPS @ AMSAT $ORB10021.D Orbital Elements 10021.MICROS
HR AMSAT ORBITAL ELEMENTS FOR THE MICROSATS FROM WA5QGD FORT WORTH,TX January 21, 2010 Send Subscribe/unsubscribe to KEPS at http://www.amsat.org/mailman/listinfo/keps BID: ORB10021.D TO ALL RADIO AMATEURS BT
Satellite: UO-11 Catalog number: 14781 Epoch time: 10021.15528234 Element set: 154 Inclination: 098.0775 deg RA of node: 072.2917 deg Eccentricity: 0.0009012 Arg of perigee: 000.2190 deg Mean anomaly: 359.9067 deg Mean motion: 14.79760968 rev/day Decay rate: -7.2e-07 rev/day^2 Epoch rev: 39006 Checksum: 290
Satellite: AO-16 Catalog number: 20439 Epoch time: 10021.51136976 Element set: 802 Inclination: 098.3132 deg RA of node: 345.3490 deg Eccentricity: 0.0010073 Arg of perigee: 240.5053 deg Mean anomaly: 119.5128 deg Mean motion: 14.31845273 rev/day Decay rate: -2.1e-07 rev/day^2 Epoch rev: 4439 Checksum: 261
Satellite: LO-19 Catalog number: 20442 Epoch time: 10020.62446836 Element set: 0715 Inclination: 098.2749 deg RA of node: 350.9003 deg Eccentricity: 0.0011136 Arg of perigee: 237.5541 deg Mean anomaly: 122.4567 deg Mean motion: 14.32079072 rev/day Decay rate: +7.9e-07 rev/day^2 Epoch rev: 04443 Checksum: 281
Satellite: AO-27 Catalog number: 22825 Epoch time: 10020.79311117 Element set: 0440 Inclination: 098.4703 deg RA of node: 332.6977 deg Eccentricity: 0.0008183 Arg of perigee: 349.7366 deg Mean anomaly: 010.3661 deg Mean motion: 14.29283959 rev/day Decay rate: +3.3e-07 rev/day^2 Epoch rev: 85099 Checksum: 314
Satellite: IO-26 Catalog number: 22826 Epoch time: 10020.81484938 Element set: 0173 Inclination: 098.4610 deg RA of node: 333.3766 deg Eccentricity: 0.0008855 Arg of perigee: 344.6628 deg Mean anomaly: 015.4284 deg Mean motion: 14.29537757 rev/day Decay rate: -2.4e-07 rev/day^2 Epoch rev: 85110 Checksum: 312
Satellite: GO-32 Catalog number: 25397 Epoch time: 10021.79493266 Element set: 93 Inclination: 098.3172 deg RA of node: 037.2872 deg Eccentricity: 0.0001130 Arg of perigee: 021.9646 deg Mean anomaly: 338.1591 deg Mean motion: 14.23169964 rev/day Decay rate: 2.5e-07 rev/day^2 Epoch rev: 59922 Checksum: 305
Satellite: NO-44 Catalog number: 26931 Epoch time: 10020.65637756 Element set: 0368 Inclination: 067.0499 deg RA of node: 224.0721 deg Eccentricity: 0.0006772 Arg of perigee: 266.4498 deg Mean anomaly: 093.5825 deg Mean motion: 14.29578729 rev/day Decay rate: -2.08e-06 rev/day^2 Epoch rev: 43366 Checksum: 337
Satellite: SO-50 Catalog number: 27607 Epoch time: 10020.53407681 Element set: 0084 Inclination: 064.5588 deg RA of node: 084.9805 deg Eccentricity: 0.0041696 Arg of perigee: 143.2927 deg Mean anomaly: 217.1023 deg Mean motion: 14.71491243 rev/day Decay rate: -6.0e-08 rev/day^2 Epoch rev: 38065 Checksum: 293
Satellite: CO-55 Catalog number: 27844 Epoch time: 10020.68983886 Element set: 761 Inclination: 098.7113 deg RA of node: 031.7696 deg Eccentricity: 0.0009200 Arg of perigee: 235.5369 deg Mean anomaly: 124.4938 deg Mean motion: 14.20679541 rev/day Decay rate: 6.8e-07 rev/day^2 Epoch rev: 34014 Checksum: 320
Satellite: CO-57 Catalog number: 27848 Epoch time: 10020.69807130 Element set: 712 Inclination: 098.7168 deg RA of node: 030.8519 deg Eccentricity: 0.0008854 Arg of perigee: 238.9589 deg Mean anomaly: 121.0715 deg Mean motion: 14.20475700 rev/day Decay rate: 2.7e-07 rev/day^2 Epoch rev: 34010 Checksum: 297
Satellite: AO-51 Catalog number: 28375 Epoch time: 10021.74302792 Element set: 585 Inclination: 098.0543 deg RA of node: 023.6348 deg Eccentricity: 0.0083248 Arg of perigee: 181.2978 deg Mean anomaly: 178.8001 deg Mean motion: 14.40666090 rev/day Decay rate: 7.0e-08 rev/day^2 Epoch rev: 29242 Checksum: 302
Satellite: CO-56 Catalog number: 28941 Epoch time: 09297.68475575 Element set: 556 Inclination: 098.0955 deg RA of node: 138.9518 deg Eccentricity: 0.0011688 Arg of perigee: 319.8691 deg Mean anomaly: 040.7485 deg Mean motion: 16.46998778 rev/day Decay rate: 1.4491492e-01 rev/day^2 Epoch rev: 20790 Checksum: 407
Satellite: GENESAT1 Catalog number: 29655 Epoch time: 10021.88211146 Element set: 921 Inclination: 040.0210 deg RA of node: 247.1505 deg Eccentricity: 0.0006292 Arg of perigee: 325.8339 deg Mean anomaly: 034.2077 deg Mean motion: 15.72685363 rev/day Decay rate: 2.5268e-04 rev/day^2 Epoch rev: 17682 Checksum: 281
Satellite: CP3 Catalog number: 31129 Epoch time: 10021.11347309 Element set: 485 Inclination: 097.9618 deg RA of node: 068.4105 deg Eccentricity: 0.0102122 Arg of perigee: 330.6206 deg Mean anomaly: 028.9252 deg Mean motion: 14.52201874 rev/day Decay rate: 1.03e-06 rev/day^2 Epoch rev: 14651 Checksum: 252
Satellite: CO-65 Catalog number: 32785 Epoch time: 10021.07362635 Element set: 583 Inclination: 097.9161 deg RA of node: 087.9066 deg Eccentricity: 0.0015937 Arg of perigee: 046.0154 deg Mean anomaly: 314.2392 deg Mean motion: 14.81571264 rev/day Decay rate: 1.94e-06 rev/day^2 Epoch rev: 9370 Checksum: 308
Satellite: KKS-1 Catalog number: 33493 Epoch time: 10021.77010165 Element set: 138 Inclination: 098.0707 deg RA of node: 140.1816 deg Eccentricity: 0.0018907 Arg of perigee: 253.7783 deg Mean anomaly: 106.1365 deg Mean motion: 14.80826413 rev/day Decay rate: 3.68e-06 rev/day^2 Epoch rev: 5381 Checksum: 281
Satellite: SOHLA-1 Catalog number: 33496 Epoch time: 10020.46908595 Element set: 0006 Inclination: 098.0477 deg RA of node: 131.5721 deg Eccentricity: 0.0005818 Arg of perigee: 319.5208 deg Mean anomaly: 040.5565 deg Mean motion: 14.69464710 rev/day Decay rate: +4.5e-07 rev/day^2 Epoch rev: 05318 Checksum: 292
/EX SB KEPS @ AMSAT $ORB10021.W Orbital Elements 10021.WEATHER
HR AMSAT ORBITAL ELEMENTS FOR WEATHER SATELLITES FROM WA5QGD FORT WORTH,TX January 21, 2010 Send Subscribe/unsubscribe to KEPS at http://www.amsat.org/mailman/listinfo/keps BID: ORB10021.W TO ALL RADIO AMATEURS BT
Satellite: NOAA-10 Catalog number: 16969 Epoch time: 10020.59941262 Element set: 0926 Inclination: 098.6721 deg RA of node: 050.8396 deg Eccentricity: 0.0011630 Arg of perigee: 284.3357 deg Mean anomaly: 075.6521 deg Mean motion: 14.27404744 rev/day Decay rate: +4.7e-07 rev/day^2 Epoch rev: 21452 Checksum: 298
Satellite: NOAA-11 Catalog number: 19531 Epoch time: 10020.79963920 Element set: 0941 Inclination: 098.7749 deg RA of node: 112.3188 deg Eccentricity: 0.0011016 Arg of perigee: 205.6877 deg Mean anomaly: 154.3756 deg Mean motion: 14.14913029 rev/day Decay rate: +1.89e-06 rev/day^2 Epoch rev: 10029 Checksum: 302
Satellite: NOAA-12 Catalog number: 21263 Epoch time: 10020.68320503 Element set: 0421 Inclination: 098.7695 deg RA of node: 033.8297 deg Eccentricity: 0.0011581 Arg of perigee: 233.5752 deg Mean anomaly: 126.4356 deg Mean motion: 14.25612039 rev/day Decay rate: +3.5e-07 rev/day^2 Epoch rev: 97138 Checksum: 282
Satellite: MET-3/5 Catalog number: 21655 Epoch time: 10020.95245325 Element set: 0718 Inclination: 082.5540 deg RA of node: 052.6622 deg Eccentricity: 0.0013585 Arg of perigee: 002.9727 deg Mean anomaly: 357.1467 deg Mean motion: 13.17023734 rev/day Decay rate: +5.1e-07 rev/day^2 Epoch rev: 88629 Checksum: 293
Satellite: MET-2/21 Catalog number: 22782 Epoch time: 10020.91636835 Element set: 0675 Inclination: 082.5475 deg RA of node: 009.2773 deg Eccentricity: 0.0023950 Arg of perigee: 095.4606 deg Mean anomaly: 264.9317 deg Mean motion: 13.83640418 rev/day Decay rate: +2.7e-07 rev/day^2 Epoch rev: 82771 Checksum: 313
